Volver al catálogo

FENGYUN 1C DEB

LostPO
NORAD 31930·DEBRIS·🇨🇳 China

Lanzado May 10, 1999 desde Taiyuan Satellite Launch Center

Loading…

Próximos Pases (próximas 24 horas)

TLE

ObsoletoSource: Space-Track

Época: Jan 28, 2012, 17:08 UTC

1 31930U 99025CMF 12028.71406604  .00002731  00000-0  15070-2 0  9990
2 31930  98.2831 197.3672 0313865  31.9165  29.0604 13.90045190236302

Sigue FENGYUN 1C DEB en tiempo real con AllMySat

Download on the App Store